WXM80 ListenWXM80 Stop

You find our weather info also at:

UK Metoffice

WeatherCloud

Weather Underground

Northeastern Weather Network

AWEKAS

Citizen Weather Observer Program (CWOP)

HAMweather, WeatherForYou, PWS Weather


Weather Underground History page Text

Daily Summary for May 2, 2017 Units:  Metric    English   Both
« Previous Day
Next Day »
Daily Weekly Monthly Yearly Custom
  High: Low: Average:
Temperature: 25.9 °C 16.9 °C 20.4 °C
Dew Point: 19.8 °C 5.2 °C 13.1 °C
Humidity: 95 % 37 % 67 %
Wind Speed: 22 km/h 1.4 km/h 9.2 km/h
Wind Gust: 44.4 km/h - -
Wind:- - SW
Pressure: 1006.7 hPa 998.9 hPa -
Precipitation: 0 mm    
Historical Graphs
 
 
Tabular Data for May 2, 2017
Time Temperature Dew Point Pressure Wind Wind Speed Wind Gust Humidity Rainfall Rate (Hourly)
00:03 17.8 °C 16.3 °C 1003.3 hPa WSW 10 km/h 14.8 km/h 91 % 0 mm
00:08 17.8 °C 16.2 °C 1002.9 hPa SSE 7.9 km/h 16.7 km/h 90 % 0 mm
00:13 17.8 °C 16.3 °C 1002.9 hPa SW 6.8 km/h 16.7 km/h 91 % 0 mm
00:18 17.8 °C 16.3 °C 1002.9 hPa SSW 12.2 km/h 20.4 km/h 91 % 0 mm
00:23 17.8 °C 16.3 °C 1002.9 hPa SW 6.3 km/h 9.3 km/h 91 % 0 mm
00:28 17.8 °C 16.3 °C 1002.6 hPa SSW 12.7 km/h 16.7 km/h 91 % 0 mm
00:33 17.8 °C 16.3 °C 1002.9 hPa South 15.6 km/h 20.4 km/h 91 % 0 mm
00:38 17.9 °C 16.4 °C 1002.6 hPa SSW 10.3 km/h 18.5 km/h 91 % 0 mm
00:43 17.9 °C 16.4 °C 1002.6 hPa SSW 17.9 km/h 37 km/h 91 % 0 mm
00:48 18 °C 16.5 °C 1002.6 hPa SSW 12.4 km/h 29.6 km/h 91 % 0 mm
00:54 18.1 °C 16.6 °C 1002.6 hPa SSW 14.8 km/h 25.9 km/h 91 % 0 mm
00:59 18.2 °C 16.7 °C 1002.6 hPa ESE 13.5 km/h 25.9 km/h 91 % 0 mm
01:04 18.3 °C 16.6 °C 1002.3 hPa SSE 15.1 km/h 33.3 km/h 90 % 0 mm
01:09 18.3 °C 16.7 °C 1002.3 hPa South 11.6 km/h 24.1 km/h 90 % 0 mm
01:14 18.3 °C 16.5 °C 1002.6 hPa South 13 km/h 20.4 km/h 89 % 0 mm
01:19 18.3 °C 16.5 °C 1002.6 hPa SSW 9.8 km/h 18.5 km/h 89 % 0 mm
01:24 18.3 °C 16.5 °C 1002.6 hPa South 11.4 km/h 16.1 km/h 89 % 0 mm
01:29 18.3 °C 16.4 °C 1002.6 hPa South 11.4 km/h 20.4 km/h 89 % 0 mm
01:34 18.3 °C 16.4 °C 1002.6 hPa SSW 13.8 km/h 16.7 km/h 89 % 0 mm
01:39 18.3 °C 16.5 °C 1002.3 hPa South 14 km/h 16.7 km/h 89 % 0 mm
01:45 18.3 °C 16.5 °C 1001.9 hPa South 11.9 km/h 24.1 km/h 89 % 0 mm
01:50 18.3 °C 16.5 °C 1001.9 hPa SSW 20 km/h 31.5 km/h 89 % 0 mm
01:55 18.3 °C 16.5 °C 1001.9 hPa SSW 9.7 km/h 20.4 km/h 89 % 0 mm
02:00 18.3 °C 16.5 °C 1001.9 hPa SSW 15 km/h 29.6 km/h 89 % 0 mm
02:05 18.3 °C 16.4 °C 1001.9 hPa SSW 11.4 km/h 24.1 km/h 89 % 0 mm
02:10 18.3 °C 16.4 °C 1001.9 hPa South 4.8 km/h 11.1 km/h 89 % 0 mm
02:15 18.2 °C 16.4 °C 1001.6 hPa SSW 8 km/h 13 km/h 89 % 0 mm
02:20 18.3 °C 16.4 °C 1001.6 hPa SW 14.3 km/h 18.5 km/h 89 % 0 mm
02:25 18.3 °C 16.4 °C 1001.6 hPa SSW 11.4 km/h 25.9 km/h 89 % 0 mm
02:30 18.3 °C 16.4 °C 1001.9 hPa South 16.1 km/h 18.5 km/h 89 % 0 mm
02:35 18.3 °C 16.4 °C 1001.6 hPa SW 10.6 km/h 22.5 km/h 89 % 0 mm
02:40 18.3 °C 16.4 °C 1001.6 hPa South 13.8 km/h 18.5 km/h 89 % 0 mm
02:46 18.3 °C 16.4 °C 1001.2 hPa SSW 8 km/h 19.3 km/h 89 % 0 mm
02:51 18.2 °C 16.4 °C 1001.2 hPa SSW 4.8 km/h 19.3 km/h 89 % 0 mm
02:56 18.2 °C 16.4 °C 1001.6 hPa SSW 6.3 km/h 11.1 km/h 89 % 0 mm
03:01 18.1 °C 16.3 °C 1001.6 hPa SSW 11.7 km/h 22.2 km/h 89 % 0 mm
03:06 18.1 °C 16.2 °C 1001.2 hPa South 10.8 km/h 18.5 km/h 89 % 0 mm
03:11 18 °C 16.2 °C 1001.2 hPa South 9.2 km/h 13 km/h 89 % 0 mm
03:16 17.9 °C 16.1 °C 1001.2 hPa SSE 8.2 km/h 13 km/h 89 % 0 mm
03:21 17.8 °C 16.2 °C 1001.2 hPa SSW 9.3 km/h 13 km/h 90 % 0 mm
03:26 17.7 °C 16.1 °C 1001.2 hPa SSW 10.1 km/h 18.5 km/h 90 % 0 mm
03:32 17.7 °C 16 °C 1001.2 hPa SSW 6.9 km/h 16.7 km/h 90 % 0 mm
03:37 17.6 °C 15.9 °C 1001.2 hPa SSW 7.6 km/h 11.1 km/h 90 % 0 mm
03:42 17.6 °C 16.1 °C 1001.2 hPa SSW 9 km/h 22.2 km/h 91 % 0 mm
03:47 17.6 °C 16.1 °C 1001.2 hPa SW 8.9 km/h 16.7 km/h 91 % 0 mm
03:52 17.6 °C 16.3 °C 1001.2 hPa South 10.1 km/h 18.5 km/h 92 % 0 mm
03:57 17.7 °C 16.3 °C 1001.2 hPa South 5.6 km/h 11.3 km/h 92 % 0 mm
04:02 17.7 °C 16.6 °C 1000.6 hPa SSW 7.7 km/h 11.3 km/h 93 % 0 mm
04:07 17.8 °C 16.6 °C 1000.9 hPa South 4.3 km/h 11.1 km/h 93 % 0 mm
04:12 17.8 °C 16.7 °C 1000.9 hPa SSW 8.9 km/h 11.3 km/h 93 % 0 mm
04:17 17.8 °C 16.7 °C 1000.6 hPa South 7.1 km/h 13 km/h 93 % 0 mm
04:22 17.8 °C 16.7 °C 1000.9 hPa South 12.7 km/h 13 km/h 93 % 0 mm
04:28 17.8 °C 16.7 °C 1001.2 hPa SSW 9 km/h 14.8 km/h 93 % 0 mm
04:33 17.8 °C 16.6 °C 1000.9 hPa South 10.9 km/h 24.1 km/h 93 % 0 mm
04:38 17.7 °C 16.5 °C 1000.9 hPa SSW 10.1 km/h 22.2 km/h 93 % 0 mm
04:43 17.6 °C 16.4 °C 1000.9 hPa SE 5.6 km/h 16.1 km/h 93 % 0 mm
04:48 17.4 °C 16.3 °C 1000.9 hPa South 8 km/h 20.4 km/h 93 % 0 mm
04:53 17.3 °C 16.1 °C 1000.6 hPa SSW 4.7 km/h 11.3 km/h 93 % 0 mm
04:58 17.2 °C 16.2 °C 1000.6 hPa South 7.9 km/h 11.3 km/h 94 % 0 mm
05:03 17.2 °C 16.2 °C 1000.2 hPa South 5.3 km/h 9.7 km/h 94 % 0 mm
05:08 17.2 °C 16.2 °C 1000.9 hPa SSE 6.3 km/h 16.7 km/h 94 % 0 mm
05:13 17.1 °C 16.1 °C 1000.9 hPa SSW 8.4 km/h 13 km/h 94 % 0 mm
05:18 17.1 °C 16.2 °C 1000.9 hPa South 6.4 km/h 11.3 km/h 95 % 0 mm
05:24 17.1 °C 16.3 °C 1000.9 hPa South 7.9 km/h 11.3 km/h 95 % 0 mm
05:29 17.2 °C 16.3 °C 1000.9 hPa SSW 7.1 km/h 16.7 km/h 95 % 0 mm
05:34 17.2 °C 16.4 °C 1000.9 hPa South 7.4 km/h 11.1 km/h 95 % 0 mm
05:39 17.2 °C 16.4 °C 1000.9 hPa SSW 7.7 km/h 14.8 km/h 95 % 0 mm
05:44 17.3 °C 16.4 °C 1001.2 hPa South 6.9 km/h 13 km/h 95 % 0 mm
05:49 17.3 °C 16.4 °C 1001.2 hPa SW 7.7 km/h 13 km/h 95 % 0 mm
05:54 17.3 °C 16.4 °C 1001.2 hPa SSW 7.1 km/h 13 km/h 95 % 0 mm
05:59 17.3 °C 16.4 °C 1001.2 hPa SSW 9.2 km/h 14.5 km/h 95 % 0 mm
06:04 17.3 °C 16.4 °C 1000.9 hPa SSW 5.6 km/h 11.1 km/h 95 % 0 mm
06:09 17.2 °C 16.2 °C 1001.2 hPa SW 5.6 km/h 14.8 km/h 94 % 0 mm
06:14 17.3 °C 16.3 °C 1000.9 hPa South 5.3 km/h 11.1 km/h 94 % 0 mm
06:19 17.3 °C 16.3 °C 1000.9 hPa South 5.8 km/h 9.3 km/h 94 % 0 mm
06:25 17.3 °C 16.3 °C 1000.9 hPa South 5.5 km/h 16.7 km/h 94 % 0 mm
06:30 17.4 °C 16.4 °C 1000.6 hPa South 8.9 km/h 20.4 km/h 94 % 0 mm
06:35 17.4 °C 16.6 °C 1000.9 hPa SSE 3.5 km/h 7.4 km/h 95 % 0 mm
06:40 17.5 °C 16.7 °C 1000.9 hPa SW 6.3 km/h 16.1 km/h 95 % 0 mm
06:45 17.5 °C 16.5 °C 1000.9 hPa West 4.5 km/h 11.1 km/h 94 % 0 mm
06:50 17.5 °C 16.5 °C 1000.9 hPa SW 7.4 km/h 9.7 km/h 94 % 0 mm
06:55 17.4 °C 16.4 °C 1000.6 hPa SSW 8.7 km/h 13 km/h 94 % 0 mm
07:00 17.4 °C 16.4 °C 1000.9 hPa SSW 8.4 km/h 16.7 km/h 94 % 0 mm
07:05 17.4 °C 16.4 °C 1000.9 hPa SSW 6.6 km/h 8 km/h 94 % 0 mm
07:10 17.3 °C 16.3 °C 1000.6 hPa South 7.1 km/h 12.9 km/h 94 % 0 mm
07:15 17.2 °C 16.1 °C 1000.6 hPa South 6.1 km/h 9.7 km/h 93 % 0 mm
07:21 17.2 °C 16 °C 1000.6 hPa South 8 km/h 19.3 km/h 93 % 0 mm
07:26 17.2 °C 16.2 °C 1000.6 hPa South 4.8 km/h 12.9 km/h 94 % 0 mm
07:30 17.2 °C 16.2 °C 1000.6 hPa SSW 8 km/h 16.1 km/h 94 % 0 mm
07:35 17.2 °C 16.2 °C 1000.6 hPa SSW 9.7 km/h 16.1 km/h 94 % 0 mm
07:40 17.2 °C 16.3 °C 1000.6 hPa SSW 4.8 km/h 14.5 km/h 94 % 0 mm
07:45 17.3 °C 16.3 °C 1000.2 hPa South 8 km/h 12.9 km/h 94 % 0 mm
07:50 17.4 °C 16.4 °C 1000.2 hPa SSW 8.5 km/h 18.5 km/h 94 % 0 mm
07:56 17.6 °C 16.6 °C 1000.2 hPa South 9.7 km/h 19.3 km/h 94 % 0 mm
08:01 17.7 °C 16.7 °C 1000.2 hPa SSW 8.9 km/h 14.8 km/h 94 % 0 mm
08:06 17.7 °C 16.7 °C 1000.2 hPa SW 7.4 km/h 16.7 km/h 94 % 0 mm
08:11 17.9 °C 16.9 °C 1000.6 hPa SSW 9.3 km/h 13 km/h 94 % 0 mm
08:16 18 °C 16.8 °C 1000.6 hPa SSW 10.6 km/h 14.8 km/h 93 % 0 mm
08:21 18 °C 16.8 °C 1000.6 hPa SW 8 km/h 16.1 km/h 93 % 0 mm
08:26 18 °C 16.8 °C 1000.2 hPa SSW 7.7 km/h 14.5 km/h 93 % 0 mm
08:31 18 °C 16.8 °C 1000.2 hPa SSW 5.6 km/h 9.3 km/h 93 % 0 mm
08:36 18.1 °C 16.9 °C 1000.2 hPa SSW 6.3 km/h 9.3 km/h 93 % 0 mm
08:41 18.3 °C 17.1 °C 1000.2 hPa WSW 2.7 km/h 6.4 km/h 93 % 0 mm
08:46 18.6 °C 17.6 °C 999.9 hPa SW 4.3 km/h 11.3 km/h 94 % 0 mm
08:51 18.8 °C 17.6 °C 1000.2 hPa SSW 8.5 km/h 18.5 km/h 93 % 0 mm
08:57 18.9 °C 17.6 °C 1000.6 hPa WSW 6.8 km/h 8 km/h 92 % 0 mm
09:02 19.1 °C 17.6 °C 1000.6 hPa WSW 7.4 km/h 14.8 km/h 91 % 0 mm
09:07 19.1 °C 17.6 °C 1000.6 hPa SW 8.4 km/h 13 km/h 91 % 0 mm
09:12 19.1 °C 17.6 °C 1000.2 hPa SW 2.1 km/h 7.4 km/h 91 % 0 mm
09:17 19.1 °C 17.6 °C 1000.2 hPa SSW 7.4 km/h 16.7 km/h 91 % 0 mm
09:22 19.3 °C 17.8 °C 1000.2 hPa South 1.9 km/h 11.1 km/h 91 % 0 mm
09:27 19.6 °C 18.2 °C 1000.2 hPa South 6.8 km/h 9.3 km/h 92 % 0 mm
09:32 19.8 °C 18.2 °C 1000.2 hPa SSW 4.5 km/h 9.3 km/h 90 % 0 mm
09:37 20.1 °C 18.4 °C 1000.2 hPa SSW 7.6 km/h 11.1 km/h 90 % 0 mm
09:42 20.4 °C 18.5 °C 1000.2 hPa SW 6.3 km/h 11.1 km/h 89 % 0 mm
09:47 20.8 °C 18.7 °C 1000.2 hPa SSW 1.4 km/h 9.3 km/h 88 % 0 mm
09:53 21.2 °C 18.9 °C 999.9 hPa SW 9 km/h 16.7 km/h 87 % 0 mm
09:58 21.6 °C 19.3 °C 999.9 hPa SW 2.7 km/h 5.6 km/h 87 % 0 mm
10:03 21.9 °C 19.1 °C 999.9 hPa South 3.2 km/h 9.3 km/h 84 % 0 mm
10:13 22.4 °C 18.8 °C 999.5 hPa SW 6.9 km/h 13 km/h 80 % 0 mm
10:18 22.7 °C 19.4 °C 999.5 hPa SSW 6.8 km/h 11.1 km/h 82 % 0 mm
10:23 23.1 °C 19.8 °C 999.5 hPa SW 2.4 km/h 6.4 km/h 82 % 0 mm
10:28 23.4 °C 19.7 °C 999.2 hPa WSW 2.9 km/h 7.4 km/h 80 % 0 mm
10:33 23.7 °C 19.4 °C 999.2 hPa WSW 7.1 km/h 11.3 km/h 77 % 0 mm
10:38 23.9 °C 19.2 °C 999.5 hPa SW 1.9 km/h 7.4 km/h 75 % 0 mm
10:43 24 °C 19.1 °C 999.5 hPa WSW 2.7 km/h 11.1 km/h 74 % 0 mm
10:49 24.1 °C 19.3 °C 999.5 hPa SW 5.3 km/h 7.4 km/h 75 % 0 mm
10:54 24.1 °C 19.1 °C 999.5 hPa SW 5 km/h 9.3 km/h 74 % 0 mm
10:59 24.3 °C 19.1 °C 999.2 hPa SSW 6.3 km/h 11.1 km/h 73 % 0 mm
11:04 24.4 °C 18.8 °C 999.5 hPa SSW 10.8 km/h 14.8 km/h 71 % 0 mm
11:09 24.6 °C 18.6 °C 999.5 hPa WSW 8.2 km/h 11.1 km/h 69 % 0 mm
11:14 24.7 °C 17.7 °C 999.2 hPa SW 12.6 km/h 18.5 km/h 65 % 0 mm
11:15 24.8 °C 18 °C 999.2 hPa SW 6.1 km/h 14.8 km/h 66 % 0 mm
11:20 24.9 °C 17.3 °C 999.2 hPa WSW 4.8 km/h 14.5 km/h 63 % 0 mm
11:25 24.8 °C 16 °C 999.5 hPa WNW 6 km/h 13 km/h 58 % 0 mm
11:31 25 °C 16.2 °C 999.2 hPa WSW 8 km/h 14.5 km/h 58 % 0 mm
11:36 25.2 °C 16.6 °C 999.2 hPa WSW 9.7 km/h 19.3 km/h 59 % 0 mm
11:41 25.2 °C 16.6 °C 999.2 hPa West 3.2 km/h 11.3 km/h 59 % 0 mm
11:46 25.2 °C 16.3 °C 999.2 hPa West 8.5 km/h 9.3 km/h 58 % 0 mm
11:51 24.9 °C 16.1 °C 998.9 hPa WSW 4.8 km/h 12.9 km/h 58 % 0 mm
11:56 24.9 °C 16.3 °C 999.2 hPa WSW 4.8 km/h 16.1 km/h 59 % 0 mm
12:01 24.6 °C 15.8 °C 998.9 hPa SW 8.7 km/h 16.7 km/h 58 % 0 mm
12:06 24.6 °C 15.2 °C 999.2 hPa WSW 6.3 km/h 14.8 km/h 56 % 0 mm
12:11 24.6 °C 15.5 °C 999.2 hPa WSW 3.1 km/h 5.6 km/h 57 % 0 mm
12:16 24.8 °C 15.2 °C 999.2 hPa West 5 km/h 14.5 km/h 55 % 0 mm
12:21 25.1 °C 16.3 °C 998.9 hPa NW 10.3 km/h 16.7 km/h 58 % 0 mm
12:26 25.3 °C 15.7 °C 999.2 hPa WSW 7.4 km/h 16.7 km/h 55 % 0 mm
12:31 25.4 °C 15.7 °C 999.2 hPa West 6.8 km/h 20.4 km/h 55 % 0 mm
12:36 25.4 °C 16.3 °C 999.2 hPa SW 4 km/h 14.8 km/h 57 % 0 mm
12:41 25.4 °C 15.2 °C 999.2 hPa NW 10.6 km/h 22.2 km/h 53 % 0 mm
12:46 25.5 °C 15.2 °C 999.2 hPa WNW 8.4 km/h 13 km/h 53 % 0 mm
12:51 25.6 °C 15 °C 999.2 hPa SSW 7.6 km/h 13 km/h 52 % 0 mm
12:57 25.8 °C 14.6 °C 999.2 hPa SW 6.4 km/h 20.4 km/h 50 % 0 mm
13:02 25.9 °C 14.1 °C 999.2 hPa WNW 7.7 km/h 16.7 km/h 48 % 0 mm
13:07 25.9 °C 13.8 °C 999.2 hPa WNW 9.7 km/h 16.7 km/h 47 % 0 mm
13:12 25.7 °C 13.8 °C 999.2 hPa WSW 9.5 km/h 14.8 km/h 48 % 0 mm
13:17 25.3 °C 14.4 °C 999.2 hPa NW 7.2 km/h 17.7 km/h 51 % 0 mm
13:22 25.1 °C 13.6 °C 999.5 hPa WNW 9 km/h 13 km/h 49 % 0 mm
13:27 25 °C 13.6 °C 999.5 hPa South 8.2 km/h 11.1 km/h 49 % 0 mm
13:31 24.9 °C 13.5 °C 999.5 hPa WSW 10.8 km/h 20.4 km/h 49 % 0 mm
13:36 24.9 °C 13.8 °C 999.2 hPa SW 11.3 km/h 25.7 km/h 50 % 0 mm
13:41 25 °C 13.6 °C 999.2 hPa SW 11.3 km/h 24.1 km/h 49 % 0 mm
13:46 25.1 °C 12.9 °C 999.2 hPa WSW 12.9 km/h 29 km/h 47 % 0 mm
13:51 24.8 °C 12.8 °C 999.2 hPa West 11.3 km/h 32.2 km/h 47 % 0 mm
13:56 24.6 °C 12.5 °C 999.2 hPa WSW 12.9 km/h 32.2 km/h 47 % 0 mm
14:01 24.5 °C 12.8 °C 999.2 hPa WSW 10.5 km/h 29.6 km/h 48 % 0 mm
14:06 24.6 °C 13.2 °C 999.2 hPa WSW 8 km/h 33.8 km/h 49 % 0 mm
14:11 24.6 °C 12.6 °C 999.2 hPa WSW 14.5 km/h 33.8 km/h 47 % 0 mm
14:16 24.6 °C 12.9 °C 999.5 hPa West 11.3 km/h 27.4 km/h 48 % 0 mm
14:21 24.6 °C 13.1 °C 999.5 hPa WSW 12.9 km/h 25.7 km/h 49 % 0 mm
14:26 24.5 °C 13.1 °C 999.2 hPa WSW 9.7 km/h 32.2 km/h 49 % 0 mm
14:31 24.3 °C 12.9 °C 999.2 hPa WSW 10.9 km/h 24.1 km/h 49 % 0 mm
14:36 24.3 °C 13.2 °C 999.2 hPa WSW 11.3 km/h 20.9 km/h 50 % 0 mm
14:41 24.4 °C 13.3 °C 999.2 hPa West 12.9 km/h 22.5 km/h 50 % 0 mm
14:46 24.6 °C 13.1 °C 999.2 hPa WSW 9.7 km/h 27.4 km/h 49 % 0 mm
14:51 24.7 °C 12.6 °C 999.2 hPa WSW 12.9 km/h 25.7 km/h 47 % 0 mm
14:56 24.6 °C 12.6 °C 999.2 hPa WSW 11.6 km/h 22.2 km/h 47 % 0 mm
15:01 24.7 °C 12.7 °C 999.2 hPa West 7.7 km/h 22.2 km/h 47 % 0 mm
15:06 24.8 °C 12.8 °C 999.2 hPa WSW 17.7 km/h 22.5 km/h 47 % 0 mm
15:11 24.9 °C 12.8 °C 999.2 hPa SW 12.1 km/h 22.2 km/h 47 % 0 mm
15:16 24.9 °C 12.8 °C 999.2 hPa SW 11.1 km/h 25.7 km/h 47 % 0 mm
15:21 24.7 °C 12.6 °C 999.2 hPa West 14 km/h 29 km/h 47 % 0 mm
15:27 24.6 °C 11.8 °C 999.2 hPa West 19.5 km/h 38.6 km/h 45 % 0 mm
15:32 24.4 °C 12 °C 999.2 hPa WSW 18.8 km/h 33.3 km/h 46 % 0 mm
15:37 24.4 °C 12 °C 999.2 hPa SW 15.9 km/h 35.2 km/h 46 % 0 mm
15:42 24.4 °C 11.7 °C 999.2 hPa SSW 15.4 km/h 29.6 km/h 45 % 0 mm
15:47 24.4 °C 11.7 °C 999.2 hPa West 13.5 km/h 19.3 km/h 45 % 0 mm
15:52 24.6 °C 11.8 °C 999.2 hPa WSW 11.4 km/h 22.2 km/h 45 % 0 mm
15:57 24.4 °C 12 °C 999.2 hPa SW 13 km/h 29.6 km/h 46 % 0 mm
16:02 24.3 °C 11.6 °C 999.2 hPa West 16.3 km/h 42.6 km/h 45 % 0 mm
16:07 24.3 °C 11.6 °C 999.5 hPa WSW 12.9 km/h 22.5 km/h 45 % 0 mm
16:12 24.3 °C 11.9 °C 999.5 hPa WSW 12.7 km/h 20.4 km/h 46 % 0 mm
16:17 24.3 °C 11.6 °C 999.5 hPa WSW 11.3 km/h 22.2 km/h 45 % 0 mm
16:22 24.2 °C 11.6 °C 999.2 hPa SSW 11.3 km/h 31.5 km/h 45 % 0 mm
16:28 24.1 °C 11.1 °C 999.5 hPa SW 14.3 km/h 27.8 km/h 44 % 0 mm
16:33 23.9 °C 11.6 °C 999.5 hPa WSW 12.7 km/h 33.8 km/h 46 % 0 mm
16:38 23.8 °C 11.2 °C 999.5 hPa WNW 15.6 km/h 24.1 km/h 45 % 0 mm
16:43 23.8 °C 11.5 °C 999.9 hPa SW 9.3 km/h 29 km/h 46 % 0 mm
16:48 23.8 °C 11.1 °C 999.9 hPa West 14.6 km/h 29.6 km/h 45 % 0 mm
16:53 23.7 °C 10.7 °C 999.9 hPa WSW 16.7 km/h 27.8 km/h 44 % 0 mm
16:58 23.7 °C 10.4 °C 999.9 hPa WSW 8.7 km/h 18.5 km/h 43 % 0 mm
17:03 23.7 °C 9.7 °C 999.9 hPa WSW 15.1 km/h 32.2 km/h 41 % 0 mm
17:08 23.6 °C 8.8 °C 1000.2 hPa WNW 12.6 km/h 31.5 km/h 39 % 0 mm
17:13 23.4 °C 8.7 °C 1000.2 hPa WSW 16.7 km/h 42.6 km/h 39 % 0 mm
17:18 23.3 °C 8.2 °C 1000.2 hPa SSW 10.1 km/h 24.1 km/h 38 % 0 mm
17:23 23.3 °C 8.2 °C 1000.6 hPa SSW 12.1 km/h 20.4 km/h 38 % 0 mm
17:28 23.2 °C 7.7 °C 1000.6 hPa SW 22 km/h 33.3 km/h 37 % 0 mm
17:33 23.1 °C 8 °C 1000.6 hPa West 20.6 km/h 31.5 km/h 38 % 0 mm
17:38 23.1 °C 7.6 °C 1000.9 hPa WSW 18.8 km/h 33.3 km/h 37 % 0 mm
17:43 23 °C 7.5 °C 1000.9 hPa SSW 14.6 km/h 25.9 km/h 37 % 0 mm
17:49 22.9 °C 7.8 °C 1000.9 hPa WNW 13.4 km/h 27.4 km/h 38 % 0 mm
17:54 22.8 °C 7.7 °C 1001.2 hPa WSW 17.2 km/h 44.4 km/h 38 % 0 mm
17:59 22.6 °C 7.9 °C 1001.2 hPa West 16.4 km/h 33.3 km/h 39 % 0 mm
18:04 22.3 °C 7.7 °C 1001.6 hPa WSW 16.1 km/h 27.8 km/h 39 % 0 mm
18:09 22.2 °C 7.9 °C 1001.9 hPa WSW 7.4 km/h 18.5 km/h 40 % 0 mm
18:14 22 °C 8.1 °C 1001.9 hPa WSW 8.7 km/h 14.8 km/h 41 % 0 mm
18:19 21.8 °C 7.3 °C 1001.9 hPa West 8.4 km/h 20.9 km/h 39 % 0 mm
18:24 21.6 °C 7.1 °C 1001.9 hPa WSW 16.3 km/h 24.1 km/h 39 % 0 mm
18:29 21.4 °C 6.9 °C 1001.9 hPa WSW 9.2 km/h 29.6 km/h 39 % 0 mm
18:34 21.3 °C 7.1 °C 1002.3 hPa SW 15.4 km/h 29.6 km/h 40 % 0 mm
18:39 21.1 °C 7 °C 1002.3 hPa WSW 8.4 km/h 18.5 km/h 40 % 0 mm
18:44 21 °C 6.5 °C 1002.6 hPa South 13 km/h 25.9 km/h 39 % 0 mm
18:49 20.9 °C 6.8 °C 1002.6 hPa SW 10.1 km/h 18.5 km/h 40 % 0 mm
18:54 20.8 °C 6.7 °C 1002.6 hPa SW 6 km/h 16.7 km/h 40 % 0 mm
18:59 20.7 °C 6.6 °C 1002.9 hPa SW 9.5 km/h 18.5 km/h 40 % 0 mm
19:04 20.6 °C 6.5 °C 1002.9 hPa SW 7.1 km/h 20.4 km/h 40 % 0 mm
19:10 20.4 °C 6.4 °C 1002.9 hPa WSW 10.9 km/h 17.7 km/h 40 % 0 mm
19:15 20.3 °C 5.9 °C 1002.9 hPa SW 6.9 km/h 14.8 km/h 39 % 0 mm
19:20 20.2 °C 5.8 °C 1002.9 hPa WNW 8.4 km/h 20.4 km/h 39 % 0 mm
19:25 20.1 °C 5.7 °C 1002.9 hPa SW 11.4 km/h 16.7 km/h 39 % 0 mm
19:30 19.9 °C 5.6 °C 1002.9 hPa WSW 12.4 km/h 24.1 km/h 39 % 0 mm
19:35 19.9 °C 5.9 °C 1002.9 hPa West 11.6 km/h 24.1 km/h 40 % 0 mm
19:40 19.8 °C 5.8 °C 1003.3 hPa WSW 7.9 km/h 14.8 km/h 40 % 0 mm
19:45 19.8 °C 6.2 °C 1003.3 hPa West 13.5 km/h 20.4 km/h 41 % 0 mm
19:50 19.7 °C 6.1 °C 1003.3 hPa WSW 12.4 km/h 20.4 km/h 41 % 0 mm
19:55 19.6 °C 6.3 °C 1003.3 hPa WSW 6.6 km/h 11.1 km/h 42 % 0 mm
20:00 19.4 °C 6.2 °C 1003.6 hPa SW 5.6 km/h 11.1 km/h 42 % 0 mm
20:05 19.3 °C 6.4 °C 1003.6 hPa SSW 10.1 km/h 14.8 km/h 43 % 0 mm
20:10 19.2 °C 6.3 °C 1003.6 hPa West 9.2 km/h 14.8 km/h 43 % 0 mm
20:15 19.2 °C 6.6 °C 1003.6 hPa WSW 6.9 km/h 18.5 km/h 44 % 0 mm
20:20 19.1 °C 6.5 °C 1003.6 hPa WNW 7.7 km/h 11.1 km/h 44 % 0 mm
20:25 19 °C 6.4 °C 1003.9 hPa WSW 3.5 km/h 7.4 km/h 44 % 0 mm
20:30 18.9 °C 6.7 °C 1003.9 hPa WSW 5.5 km/h 8 km/h 45 % 0 mm
20:35 18.8 °C 6.6 °C 1003.9 hPa WNW 4 km/h 5.6 km/h 45 % 0 mm
20:40 18.7 °C 6.8 °C 1004.3 hPa West 6.3 km/h 13 km/h 46 % 0 mm
20:46 18.7 °C 6.8 °C 1004.3 hPa West 3.2 km/h 19.3 km/h 46 % 0 mm
20:51 18.6 °C 6.8 °C 1004.3 hPa WSW 3.2 km/h 14.5 km/h 46 % 0 mm
20:56 18.6 °C 6.7 °C 1004.3 hPa WSW 4.8 km/h 16.1 km/h 46 % 0 mm
21:01 18.5 °C 6.7 °C 1004.6 hPa WSW 9.8 km/h 9.8 km/h 46 % 0 mm
21:06 18.4 °C 6.6 °C 1004.6 hPa WSW 8 km/h 20.9 km/h 46 % 0 mm
21:11 18.5 °C 6.7 °C 1004.6 hPa WSW 9.7 km/h 22.5 km/h 46 % 0 mm
21:16 18.5 °C 6.7 °C 1004.6 hPa WSW 8 km/h 20.9 km/h 46 % 0 mm
21:21 18.6 °C 6.7 °C 1005 hPa West 4.8 km/h 14.5 km/h 46 % 0 mm
21:26 18.6 °C 6.7 °C 1005 hPa West 8 km/h 14.5 km/h 46 % 0 mm
21:31 18.6 °C 6.7 °C 1005 hPa West 4.8 km/h 19.3 km/h 46 % 0 mm
21:36 18.6 °C 6.4 °C 1005 hPa West 9.7 km/h 19.3 km/h 45 % 0 mm
21:41 18.6 °C 6.4 °C 1005.3 hPa WSW 9.7 km/h 19.3 km/h 45 % 0 mm
21:46 18.6 °C 6.4 °C 1005.3 hPa West 8 km/h 19.3 km/h 45 % 0 mm
21:51 18.6 °C 6.7 °C 1005.3 hPa WNW 3.2 km/h 11.3 km/h 46 % 0 mm
21:56 18.4 °C 6.3 °C 1005.6 hPa West 11.3 km/h 22.5 km/h 45 % 0 mm
22:01 18.3 °C 6.2 °C 1005.6 hPa WSW 9.2 km/h 16.7 km/h 45 % 0 mm
22:06 18.2 °C 5.8 °C 1005.6 hPa WSW 15.9 km/h 27.4 km/h 44 % 0 mm
22:11 18.2 °C 5.4 °C 1005.6 hPa WSW 14.8 km/h 25.9 km/h 43 % 0 mm
22:16 18.1 °C 5.3 °C 1006 hPa WSW 9.7 km/h 18.5 km/h 43 % 0 mm
22:21 18.1 °C 5.3 °C 1006 hPa West 10.5 km/h 18.5 km/h 43 % 0 mm
22:26 18.1 °C 5.6 °C 1006.3 hPa WNW 8.9 km/h 13 km/h 44 % 0 mm
22:31 17.9 °C 5.2 °C 1006 hPa SW 14.3 km/h 24.1 km/h 43 % 0 mm
22:36 17.9 °C 5.4 °C 1006.3 hPa West 9.2 km/h 14.8 km/h 44 % 0 mm
22:41 17.8 °C 5.4 °C 1006.3 hPa WSW 5.8 km/h 11.1 km/h 44 % 0 mm
22:46 17.7 °C 5.6 °C 1006.3 hPa NW 9.3 km/h 16.7 km/h 45 % 0 mm
22:51 17.7 °C 5.6 °C 1006.3 hPa WNW 9.3 km/h 20.9 km/h 45 % 0 mm
22:56 17.6 °C 5.8 °C 1006.3 hPa WNW 7.6 km/h 13 km/h 46 % 0 mm
23:01 17.4 °C 5.7 °C 1006.3 hPa West 9 km/h 18.5 km/h 46 % 0 mm
23:07 17.4 °C 5.7 °C 1006.3 hPa West 4.2 km/h 14.5 km/h 46 % 0 mm
23:12 17.3 °C 5.6 °C 1006.3 hPa WNW 5.1 km/h 13 km/h 46 % 0 mm
23:17 17.3 °C 5.6 °C 1006.3 hPa WSW 10.3 km/h 16.7 km/h 46 % 0 mm
23:22 17.3 °C 5.6 °C 1006.3 hPa West 7.6 km/h 16.7 km/h 46 % 0 mm
23:27 17.2 °C 5.5 °C 1006.3 hPa West 2.1 km/h 14.8 km/h 46 % 0 mm
23:32 17.2 °C 5.4 °C 1006.7 hPa WSW 7.4 km/h 16.1 km/h 46 % 0 mm
23:37 17.1 °C 5.7 °C 1006.7 hPa WSW 2.1 km/h 3.7 km/h 47 % 0 mm
23:42 17 °C 5.6 °C 1006.7 hPa WNW 6.9 km/h 13 km/h 47 % 0 mm
23:47 17 °C 5.6 °C 1006.7 hPa WNW 2.1 km/h 16.7 km/h 47 % 0 mm
23:52 16.9 °C 5.6 °C 1006.7 hPa West 5 km/h 16.7 km/h 47 % 0 mm
23:57 16.9 °C 5.5 °C 1006.7 hPa West 4.3 km/h 11.1 km/h 47 % 0 mm
Crab Meadow Weather
Compliments of Weather Underground - 3 mb

Script developed by  Jim McMurry - jmcmurry@mwt.net Adapted for the template by  Wim van der Kuil - Leuven-Template.eu

Astronomy: February 1865 is the only month recorded in history not to have a full moon.